Flag for U.S.A. Weather past 2 weeks in Frankfort, Kentucky, U.S.A.

Now
54 °F

Clear.


Feels Like: 54 °F
Forecast: 50 / 78 °F
Wind: No wind

Location: Capital City Airport

Current Time: May 23, 2015 at 1:47:26 AM

Latest Report: May 23, 2015 at 12:53 AM


Visibility: 10 mi

Pressure: 30.29 "Hg

Humidity: 77%

Dew point: 47 °F

Location of FrankfortLocation

Historic Weather in Frankfort — Graph

°F

Frankfort temperature yesterday

Maximum temperature yesterday: 73 °F (at 3:53 PM)
Minimum temperature yesterday: 43 °F (at 3:53 AM)
Average temperature yesterday: 59 °F

Past Weeks' High & Low Weather Summary

 TemperatureHumidityPressure
High87 °F (May 11, 1:53 PM)93% (May 8, 4:53 AM)30.37 "Hg (May 8, 4:53 AM)
Low43 °F (May 22, 3:53 AM)30% (May 8, 3:53 PM)29.90 "Hg (May 11, 4:53 PM)
Average67 °F67%30.11 "Hg
* Reported May 7 11:53 PM — May 22 11:53 PM, Frankfort, Weather by CustomWeather, © 2015

Note: Actual official high and low records may vary slightly from our data, if they occured in-between our weather recording intervals... More about our weather records

Advertising

Frankfort weather history for previous 24 hours

 ConditionsComfort  
Time TempWeatherWind HumidityBarometerVisibility
11:53 PM
Fri, May 22
57 °FClear.No wind72%30.29 "Hg10 mi
10:53 PM59 °FClear.3 mph67%30.27 "Hg10 mi
9:53 PM62 °FClear.3 mph60%30.25 "Hg10 mi
8:53 PM66 °FSunny.5 mph50%30.24 "Hg10 mi
7:53 PM70 °FSunny.3 mph41%30.23 "Hg10 mi
6:53 PM71 °FSunny.3 mph38%30.22 "Hg10 mi
5:53 PM73 °FSunny.8 mph34%30.22 "Hg10 mi
4:53 PM73 °FSunny.7 mph34%30.22 "Hg10 mi
3:53 PM73 °FSunny.13 mph33%30.23 "Hg10 mi
2:53 PM72 °FSunny.12 mph34%30.24 "Hg10 mi
1:53 PM71 °FSunny.10 mph35%30.24 "Hg10 mi
12:53 PM68 °FSunny.8 mph33%30.25 "Hg10 mi
11:53 AM65 °FSunny.7 mph49%30.26 "Hg10 mi
10:53 AM62 °FSunny.9 mph56%30.26 "Hg10 mi
9:53 AM58 °FSunny.8 mph62%30.26 "Hg10 mi
8:53 AM52 °FSunny.8 mph77%30.25 "Hg10 mi
7:53 AM48 °FSunny.6 mph86%30.24 "Hg8 mi
6:53 AM43 °FClear.3 mph89%30.22 "Hg7 mi
5:53 AM44 °FClear.No wind85%30.19 "Hg9 mi
4:53 AM44 °FClear.No wind89%30.17 "Hg9 mi
3:53 AM43 °FClear.No wind89%30.16 "Hg10 mi
2:53 AM44 °FClear.3 mph85%30.16 "Hg10 mi
1:53 AM44 °FClear.5 mph85%30.17 "Hg10 mi
Weather by CustomWeather, © 2015

See weather overviewHow to use our weather pages